Hourly Weather Roundup
Issued by NWS Central Illinois

Home | Current Version | Previous Version | Text Only | Print | Product List | Glossary On
Versions: 1 2 3 4 5 6 7 8 9 10 11 12 13 14 15 16 17 18 19 20 21 22 23 24 25 26 27 28 29 30 31 32 33 34 35 36 37 38 39 40 41 42 43 44 45 46 47 48 49 50
579
NZUS43 KILX 220110
HWRILX

Area Weather Roundup
National Weather Service Lincoln IL
800 PM CDT THU SEP 21 2017

NOTE:  "FAIR" indicates few or no clouds below 12,000 feet, with
       no sigificant weather and/or obstructions to visibility.


CITY           SKY/WX    TMP DP  RH WIND       PRES   REMARKS
Bloomington    CLEAR     80  69  69 SW5       30.02R HX  83
Champaign      CLOUDY    84  66  54 SE6       30.01R HX  86
Danville       PTCLDY    77  68  75 SE3       30.00R
Decatur        PTCLDY    81  68  64 S3        30.00R HX  84
Effingham      CLEAR     78  67  69 CALM      30.02R HX  80
Flora          CLEAR     77  69  78 CALM      30.00R
Galesburg      CLOUDY    76  70  81 SE5       29.97S
Jacksonville   CLOUDY    78  70  76 SE6       29.96R HX  80
Lacon          PTCLDY    80  70  72 S3        29.97R HX  82
Lawrenceville  CLEAR     79  71  76 S8        30.01R HX  82
Litchfield     CLOUDY    76  70  81 SE5       29.99R
$$


CITY           SKY/WX    TMP DP  RH WIND       PRES   REMARKS
Lincoln        PTCLDY    78  70  77 S3        29.99R
Macomb         CLOUDY    77  72  82 SE5       29.98R
Mattoon        CLEAR     81  68  64 SE5       30.00R HX  84
Mt Carmel AP   CLEAR     78  67  70 CALM      30.01R HX  80
Olney-Noble AP CLEAR     78  68  72 E3        30.01R HX  80
Paris AP       CLEAR     77  67  72 CALM      30.03R
Peoria         MOCLDY    81  71  71 S5        29.97S HX  85
Pontiac        PTCLDY    76  73  87 SE6       30.00R
Rantoul        PTCLDY    84  71  66 SE3       30.01R HX  89
Robinson       CLEAR     75  70  84 CALM      30.02R
Springfield    CLOUDY    80  71  74 SE6       29.98R HX  84
Taylorville    PTCLDY    76  69  79 CALM      30.00R
$$

...REGIONAL REPORTS...


CITY           SKY/WX    TMP DP  RH WIND       PRES   REMARKS
Chicago O`Hare PTCLDY    85  69  58 S7        29.99R HX  89
Kankakee       CLOUDY    78  72  82 SE3       30.02R HX  80
Moline         PTCLDY    79  70  74 S7        29.93S HX  82
Mount Sterling CLOUDY    77  70  79 SE5       29.95R
Mount Vernon     N/A     73  71  93 CALM      30.00
Pittsfield     CLOUDY    79  71  76 E5        29.96S HX  82
Quincy         CLEAR     80  70  71 SE7       29.94S HX  83
Rockford       CLOUDY    77  68  73 CALM      29.99R
$$


CITY           SKY/WX    TMP DP  RH WIND       PRES   REMARKS
Burlington     CLEAR     80  73  79 SE9       29.93S HX  84
Cedar Rapids   CLEAR     79  68  69 SE9       29.90S HX  81
Des Moines     PTCLDY    84  70  62 SE15      29.83R HX  88
Kirksville     CLEAR     77  68  73 S7        29.91S
Ottumwa        CLEAR     81  72  74 SE10      29.88R HX  85
St Louis       MOCLDY    85  68  56 SE10      29.96R HX  88
$$


CITY           SKY/WX    TMP DP  RH WIND       PRES   REMARKS
Terre Haute    CLEAR     77  68  73 CALM      30.02R
Evansville     CLEAR     79  71  76 NE3       30.02R HX  82
Indianapolis   PTCLDY    83  66  56 SW5       30.04R HX  85
Lafayette      CLEAR     75  71  87 CALM      30.02R
Madison        CLOUDY    74  69  85 CALM      29.97R
Milwaukee      PTCLDY    74  69  85 SE6       30.00R
$$






USA.gov is the U.S. government's official web portal to all federal, state and local government web resources and services.